Wheeling, WV

6:02 AM EST on January 23, 2018 (GMT -0500)
Wheeling-Ohio County

Weather History for KHLG - September, 2013

Change the Weather History Date:

Sunday, September 8, 2013

  Actual Average Record
Temperature  
Mean Temperature 71 °F 67 °F  
Max Temperature 81 °F 77 °F 100 °F (1939)
Min Temperature 60 °F 57 °F 37 °F (1932)
Degree Days  
Heating Degree Days 0 1  
Month to date heating degree days 9 8  
Since 1 July heating degree days 25 19  
Cooling Degree Days 6    
Month to date cooling degree days 24  
Year to date cooling degree days 659  
Growing Degree Days 21 (Base 50)    
Moisture  
Dew Point 62 °F    
Average Humidity 76    
Maximum Humidity 90    
Minimum Humidity 62    
Precipitation  
Precipitation T in 0.09 in 3.06 in (2004)
Month to date precipitation 0.37 0.70  
Sea Level Pressure  
Sea Level Pressure 29.99 in    
Wind  
Wind Speed 6 mph (NW)    
Max Wind Speed 13 mph    
Max Gust Speed 16 mph    
Visibility 10 miles    
Events Rain    
T = Trace of Precipitation, MM = Missing Value Source: NWS Daily Summary

Daily Weather History Graph

Daily Weather History Graph

Search for Another Location

Airport or City:

Trip Planner

Search our weather history database for the weather conditions in past years. The results will help you decide how hot, cold, wet, or windy it might be!

Date:

Astronomy

Sep. 08, 2013 Rise Set
Actual Time 6:57 AM EDT 7:42 PM EDT
Civil Twilight 6:29 AM EDT 8:09 PM EDT
Nautical Twilight 5:56 AM EDT 8:42 PM EDT
Astronomical Twilight 5:23 AM EDT 9:15 PM EDT
Moon 10:13 AM EDT (9/8) 9:16 PM EDT (9/8)
Length of Visible Light 13h 40m
Length of Day
12h 45m
Waxing Crescent, 11% of the Moon is Illuminated
Sep 8
Waxing Crescent
Sep 12
First Quarter
Sep 19
Full
Sep 26
Last Quarter
Oct 4
New

Hourly Weather History & Observations

Time (EDT) Temp. Dew Point Humidity Pressure Visibility Wind Dir Wind Speed Gust Speed Precip Events Conditions
12:53 AM 66.9 °F 57.0 °F 70% 29.97 in 10.0 mi SSW 5.8 mph - N/A   Mostly Cloudy
1:53 AM 66.9 °F 57.0 °F 70% 29.96 in 10.0 mi SW 4.6 mph - N/A   Overcast
2:53 AM 66.9 °F 57.9 °F 73% 29.95 in 10.0 mi SSW 5.8 mph - N/A   Overcast
3:53 AM 66.9 °F 57.9 °F 73% 29.94 in 10.0 mi SSW 5.8 mph - N/A   Overcast
4:53 AM 66.9 °F 57.9 °F 73% 29.93 in 10.0 mi SSW 4.6 mph - N/A   Overcast
5:53 AM 64.9 °F 59.0 °F 81% 29.94 in 10.0 mi SW 5.8 mph - N/A   Partly Cloudy
6:53 AM 64.9 °F 59.0 °F 81% 29.96 in 10.0 mi WSW 3.5 mph - N/A   Clear
7:53 AM 64.9 °F 60.1 °F 84% 29.97 in 10.0 mi SSW 3.5 mph - N/A   Overcast
8:53 AM 68.0 °F 62.1 °F 81% 29.97 in 10.0 mi WSW 4.6 mph - N/A   Scattered Clouds
9:53 AM 70.0 °F 63.0 °F 78% 29.98 in 10.0 mi West 5.8 mph - N/A   Clear
10:53 AM 73.0 °F 64.9 °F 76% 29.98 in 10.0 mi NW 3.5 mph - N/A   Overcast
11:53 AM 75.0 °F 64.9 °F 71% 29.98 in 10.0 mi North 3.5 mph - N/A   Overcast
12:42 PM 75.2 °F 66.2 °F 73% 30.00 in 10.0 mi NNW 8.1 mph - N/A   Overcast
12:49 PM 75.2 °F 66.2 °F 73% 30.00 in 8.0 mi NNW 5.8 mph - 0.00 in Rain Light Rain
12:53 PM 75.0 °F 66.0 °F 73% 29.99 in 8.0 mi NNW 5.8 mph - 0.00 in Rain Light Rain
1:36 PM 75.2 °F 66.2 °F 73% 30.01 in 8.0 mi Variable 3.5 mph - 0.00 in   Overcast
1:53 PM 75.9 °F 66.9 °F 74% 29.99 in 7.0 mi NW 3.5 mph - 0.00 in   Mostly Cloudy
2:53 PM 77.0 °F 66.0 °F 69% 29.99 in 9.0 mi NNE 8.1 mph - N/A   Mostly Cloudy
3:53 PM 78.1 °F 64.9 °F 64% 29.98 in 10.0 mi North 8.1 mph - N/A   Scattered Clouds
4:53 PM 77.0 °F 64.0 °F 64% 29.99 in 10.0 mi North 9.2 mph - N/A   Scattered Clouds
5:53 PM 75.9 °F 64.0 °F 67% 29.99 in 10.0 mi North 6.9 mph - N/A   Clear
6:53 PM 73.0 °F 63.0 °F 71% 30.00 in 10.0 mi North 5.8 mph - N/A   Clear
7:53 PM 71.1 °F 61.0 °F 70% 30.01 in 10.0 mi NNE 6.9 mph - N/A   Clear
8:53 PM 69.1 °F 60.1 °F 73% 30.03 in 10.0 mi NNE 6.9 mph - N/A   Clear
9:53 PM 68.0 °F 60.1 °F 76% 30.05 in 10.0 mi NNE 8.1 mph - N/A   Clear
10:53 PM 66.0 °F 59.0 °F 78% 30.06 in 10.0 mi NNE 6.9 mph - N/A   Clear
11:53 PM 63.0 °F 59.0 °F 87% 30.07 in 10.0 mi NNE 9.2 mph - N/A   Clear